Weather reports worldwide

Advertisment
Luqa, Malta (16597): temperature & dewpoint: 08.10.2019 13:00:00 - 14.10.2019 13:00:00 (CEST)Luqa, Malta (16597): wind speed: 08.10.2019 13:00:00 - 14.10.2019 13:00:00 (CEST)Luqa, Malta (16597): wind direction: 08.10.2019 13:00:00 - 14.10.2019 13:00:00 (CEST)Luqa, Malta (16597): reduced air pressure: 08.10.2019 13:00:00 - 14.10.2019 13:00:00 (CEST)Luqa, Malta (16597): visibility: 08.10.2019 13:00:00 - 14.10.2019 13:00:00 (CEST)
Date & Time tt [°C] td [°C] ff [km/h] ff [kn] dd ppp [hPa] vv [km]
14.10.2019 13:00:00 24,0 20,0 18 10 SE - 10
14.10.2019 12:00:00 24,0 20,0 15 8 SSE - 10
14.10.2019 11:00:00 24,0 19,5 16 9 SE 1022,3 10
14.10.2019 10:00:00 24,0 20,0 18 10 SSE - 10
14.10.2019 09:00:00 23,0 21,0 11 6 SE - 10
14.10.2019 08:00:00 19,6 19,4 4 2 - 1021,8 10
14.10.2019 07:00:00 19,0 19,0 0 0 N - 8
14.10.2019 06:00:00 19,0 19,0 2 1 E - 10
14.10.2019 05:00:00 19,3 18,8 5 3 ENE 1021,6 10
14.10.2019 04:00:00 19,0 19,0 5 3 SE - 10
14.10.2019 03:00:00 20,0 19,0 4 2 - - 10
14.10.2019 02:00:00 20,9 19,9 8 4 ESE 1022,2 10
14.10.2019 01:00:00 21,0 20,0 5 3 ESE - 10
14.10.2019 00:00:00 21,0 19,0 2 1 ESE - 10
13.10.2019 23:00:00 21,1 19,7 9 5 SE 1022,8 10
13.10.2019 22:00:00 22,0 20,0 8 4 SSE - 10
13.10.2019 21:00:00 22,0 20,0 9 5 SSE - 10
13.10.2019 20:00:00 21,9 20,1 11 6 SSE 1022,5 10
13.10.2019 19:00:00 22,0 20,0 13 7 SE - 10
13.10.2019 18:00:00 23,0 20,0 13 7 SE - 10
13.10.2019 17:00:00 24,2 20,1 11 6 E 1021,7 10
13.10.2019 16:00:00 25,0 20,0 13 7 ESE - 10
13.10.2019 15:00:00 25,0 20,0 16 9 SE - 10
13.10.2019 14:00:00 25,3 19,9 13 7 SSE 1022,6 10
13.10.2019 13:00:00 25,0 20,0 15 8 SE - 10
13.10.2019 12:00:00 24,0 19,0 11 6 SE - 10
13.10.2019 11:00:00 24,5 19,2 11 6 ESE 1023,7 10
13.10.2019 10:00:00 24,0 20,0 11 6 ESE - 10
13.10.2019 09:00:00 23,0 21,0 11 6 ESE - 10
13.10.2019 08:00:00 21,3 20,7 8 4 E 1022,5 10
13.10.2019 07:00:00 21,0 20,0 8 4 E - 10
13.10.2019 06:00:00 21,0 21,0 5 3 E - 10
13.10.2019 05:00:00 20,9 20,3 2 1 - 1022,2 10
13.10.2019 04:00:00 21,0 20,0 4 2 E - 10
13.10.2019 03:00:00 21,0 20,0 4 2 E - 10
13.10.2019 02:00:00 21,1 19,9 5 3 ESE 1023,0 10
13.10.2019 01:00:00 22,0 20,0 4 2 NE - 10
13.10.2019 00:00:00 22,0 21,0 5 3 ESE - 10
12.10.2019 23:00:00 22,0 20,7 8 4 ESE 1023,3 10
12.10.2019 22:00:00 22,0 21,0 5 3 ESE - 10
12.10.2019 21:00:00 22,0 21,0 8 4 E - 10
12.10.2019 20:00:00 22,4 20,6 11 6 E 1022,7 10
12.10.2019 19:00:00 23,0 20,0 11 6 E - 10
12.10.2019 18:00:00 23,0 20,0 15 8 ESE - 10
12.10.2019 17:00:00 24,5 19,5 16 9 E 1022,1 10
12.10.2019 16:00:00 25,0 20,0 15 8 E - 10
12.10.2019 15:00:00 25,0 20,0 18 10 NE - 10
12.10.2019 14:00:00 24,5 19,7 15 8 E 1022,9 10
12.10.2019 13:00:00 25,0 20,0 13 7 E - 10
12.10.2019 12:00:00 24,0 20,0 15 8 E - 10
12.10.2019 11:00:00 24,2 20,0 16 9 ENE 1023,5 10
12.10.2019 10:00:00 24,0 20,0 16 9 ENE - 10
12.10.2019 09:00:00 23,0 20,0 16 9 ENE - 10
12.10.2019 08:00:00 21,9 20,7 9 5 ENE 1022,2 10
12.10.2019 07:00:00 21,0 20,0 8 4 E - 10
12.10.2019 06:00:00 21,0 20,0 8 4 E - 10
12.10.2019 05:00:00 21,8 20,3 8 4 E 1022,0 10
12.10.2019 04:00:00 22,0 21,0 9 5 ENE - 10
12.10.2019 03:00:00 22,0 21,0 9 5 ENE - 10
12.10.2019 02:00:00 22,1 20,9 9 5 ENE 1022,0 10
12.10.2019 01:00:00 22,0 21,0 8 4 ENE - 10
12.10.2019 00:00:00 22,0 21,0 8 4 ENE - 10
11.10.2019 23:00:00 22,6 21,0 8 4 ENE 1021,8 10
11.10.2019 22:00:00 23,0 21,0 11 6 ENE - 10
11.10.2019 21:00:00 23,0 21,0 11 6 ENE - 10
11.10.2019 20:00:00 23,1 20,9 15 8 ENE 1020,8 10
11.10.2019 19:00:00 23,0 21,0 11 6 ENE - 10
11.10.2019 18:00:00 24,0 21,0 13 7 ENE - 10
11.10.2019 17:00:00 24,2 20,5 15 8 NE 1020,1 10
11.10.2019 16:00:00 24,0 20,0 16 9 NE - 10
11.10.2019 15:00:00 25,0 19,0 22 12 NE - 10
11.10.2019 14:00:00 25,1 18,7 24 13 NNE 1020,5 10
11.10.2019 13:00:00 25,0 19,0 21 11 NE - 10
11.10.2019 12:00:00 25,0 19,0 18 10 NE - 10
11.10.2019 11:00:00 24,7 19,5 18 10 ENE 1020,9 10
11.10.2019 10:00:00 24,0 20,0 15 8 NE - 10
11.10.2019 09:00:00 23,0 20,0 15 8 ENE - 10
11.10.2019 08:00:00 21,5 19,5 5 3 NE 1019,3 10
11.10.2019 07:00:00 21,0 19,0 8 4 NE - 10
11.10.2019 06:00:00 20,0 19,0 5 3 NNE - 10
11.10.2019 05:00:00 20,2 19,2 5 3 N 1018,1 10
11.10.2019 04:00:00 21,0 19,0 8 4 NW - 10
11.10.2019 03:00:00 21,0 20,0 11 6 NNE - 10
11.10.2019 02:00:00 21,9 19,3 11 6 NNE 1017,7 10
11.10.2019 01:00:00 22,0 19,0 15 8 NE - 10
11.10.2019 00:00:00 22,0 20,0 15 8 NNE - 10
10.10.2019 23:00:00 22,3 20,8 16 9 NNE 1017,5 10
10.10.2019 22:00:00 23,0 21,0 13 7 NNE - 10
10.10.2019 21:00:00 23,0 21,0 16 9 NE - 10
10.10.2019 20:00:00 22,6 20,4 13 7 NE 1016,4 10
10.10.2019 19:00:00 23,0 20,0 15 8 NE - 10
10.10.2019 18:00:00 23,0 20,0 21 11 NE - 10
10.10.2019 17:00:00 23,4 19,7 18 10 NE 1015,4 10
10.10.2019 16:00:00 24,0 20,0 24 13 NE - 10
10.10.2019 15:00:00 24,0 20,0 18 10 NE - 10
10.10.2019 14:00:00 23,7 19,6 22 12 NE 1015,0 10
10.10.2019 13:00:00 23,0 20,0 24 13 NE - 10
10.10.2019 12:00:00 24,0 20,0 22 12 NE - 10
10.10.2019 11:00:00 22,8 21,2 22 12 NE 1015,8 10
10.10.2019 10:00:00 23,0 21,0 21 11 ENE - 10
10.10.2019 09:00:00 22,0 21,0 5 3 N - 10
10.10.2019 08:00:00 19,6 19,0 4 2 N 1014,3 10
10.10.2019 07:00:00 20,0 19,0 4 2 NE - 10
10.10.2019 06:00:00 19,0 19,0 4 2 WNW - 10
10.10.2019 05:00:00 20,2 19,2 4 2 NNW 1013,3 10
10.10.2019 04:00:00 21,0 19,0 2 1 NE - 10
10.10.2019 03:00:00 21,0 20,0 8 4 ENE - 10
10.10.2019 02:00:00 21,0 19,6 9 5 NE 1014,1 10
10.10.2019 01:00:00 21,0 20,0 11 6 ENE - 10
10.10.2019 00:00:00 22,0 20,0 11 6 E - 10
09.10.2019 23:00:00 21,2 18,7 16 9 ENE 1014,9 10
09.10.2019 22:00:00 21,0 18,0 11 6 ENE - 10
09.10.2019 21:00:00 21,0 18,0 9 5 E - 10
09.10.2019 20:00:00 20,3 17,5 5 3 NNE 1013,6 10
09.10.2019 19:00:00 20,0 17,0 5 3 NNE - 10
09.10.2019 18:00:00 20,0 17,0 11 6 E - 10
09.10.2019 17:00:00 20,9 17,8 18 10 E 1012,8 10
09.10.2019 16:00:00 22,0 17,0 9 5 ESE - 10
09.10.2019 15:00:00 22,0 18,0 16 9 S - 10
09.10.2019 14:00:00 24,6 21,3 35 19 ESE 1014,0 10
09.10.2019 13:00:00 25,0 21,0 26 14 E - 10
09.10.2019 12:00:00 25,0 22,0 26 14 E - 10
09.10.2019 11:00:00 24,6 22,0 15 8 E 1016,3 10
09.10.2019 10:00:00 23,0 20,0 13 7 NNE - 10
09.10.2019 09:00:00 21,0 19,0 5 3 ENE - 10
09.10.2019 08:00:00 18,4 17,4 4 2 ESE 1015,8 10
09.10.2019 07:00:00 19,0 17,0 18 10 SSE - 5
09.10.2019 06:00:00 23,0 22,0 24 13 E - 10
09.10.2019 05:00:00 23,1 21,3 24 13 E 1013,9 10
09.10.2019 04:00:00 23,0 20,0 21 11 E - 10
09.10.2019 03:00:00 23,0 20,0 21 11 E - 10
09.10.2019 02:00:00 22,4 17,8 22 12 E 1013,3 10
09.10.2019 01:00:00 21,0 16,0 18 10 E - 10
09.10.2019 00:00:00 22,0 18,0 28 15 ENE - 10
08.10.2019 23:00:00 22,3 18,7 26 14 E 1013,6 10
08.10.2019 22:00:00 22,0 19,0 28 15 E - 10
08.10.2019 21:00:00 22,0 18,0 21 11 E - 10
08.10.2019 20:00:00 21,0 18,9 24 13 E 1011,5 10
08.10.2019 19:00:00 22,0 19,0 24 13 ENE - 10
08.10.2019 18:00:00 23,0 18,0 29 16 ENE - 10
08.10.2019 17:00:00 23,6 17,7 26 14 ENE 1009,4 10
08.10.2019 16:00:00 24,0 18,0 26 14 ENE - 10
08.10.2019 15:00:00 24,0 18,0 31 17 E - 10
08.10.2019 14:00:00 23,2 17,2 28 15 ENE 1008,7 10
08.10.2019 13:00:00 24,0 19,0 24 13 E - 10

tt = temperature
td = dewpoint
ff = wind speed
dd = wind direction
ppp = reduced air pressure
vv = visibility

Next stations